MUOS-3

Last updated on Sun Apr 12 2026 00:02:53 GMT+0000 (Coordinated Universal Time)

1 40374U 15002A 26101.23246250 -.00000124 00000+0 00000+0 0 9996 2 40374 4.3933 43.1888 0051399 182.4723 42.0139 1.00271189 40910
UTC large
Height (km)
Speed (km/s)
/
Latitude / Longitude
Inclination (degrees)
Orbital Period (minutes)
Azimuth
Elevation
Range (km)
Doppler Factor

Next 0 passes for location: London (51.5072 / 0.1276)

Sorry there are no passes over London.
MUOS-3